| time (UTC) | temp F | wind direction | speed knots | gust knots | rain 1hr in | rain 24hr in | rain mn in | humidity % | barometer mb |
| 20260906121503 | 66 | 0 | 0.0 | 0.0 | 0.00 | 0.00 | 0.00 | 96 | 1018.7 |
| 20260906120005 | 66 | 0 | 0.0 | 0.0 | 0.00 | 0.00 | 0.00 | 96 | 1018.5 |
| 20260906114503 | 65 | 0 | 0.0 | 0.0 | 0.00 | 0.00 | 0.00 | 96 | 1018.1 |
| 20260906110005 | 66 | 0 | 0.0 | 0.0 | 0.00 | 0.00 | 0.00 | 96 | 1017.8 |
| 20260906104503 | 66 | 0 | 0.0 | 0.0 | 0.00 | 0.00 | 0.00 | 96 | 1017.7 |
| 20260906103004 | 66 | 0 | 0.0 | 0.0 | 0.00 | 0.00 | 0.00 | 96 | 1017.7 |
| 20260906101504 | 66 | 0 | 0.0 | 0.0 | 0.00 | 0.00 | 0.00 | 96 | 1017.4 |
| 20260906094503 | 66 | 0 | 0.0 | 0.0 | 0.00 | 0.00 | 0.00 | 96 | 1017.3 |
| 20260906093005 | 66 | 0 | 0.0 | 0.0 | 0.00 | 0.00 | 0.00 | 96 | 1017.2 |
| 20260906090005 | 66 | 0 | 0.0 | 0.0 | 0.00 | 0.00 | 0.00 | 95 | 1017.2 |
| 20260906084503 | 66 | 0 | 0.0 | 0.0 | 0.00 | 0.00 | 0.00 | 95 | 1017.2 |
| 20260906083005 | 66 | 0 | 0.0 | 0.0 | 0.00 | 0.00 | 0.00 | 95 | 1017.2 |
| 20260906081504 | 66 | 0 | 0.0 | 0.0 | 0.00 | 0.00 | 0.00 | 95 | 1017.2 |
| 20260906080005 | 67 | 0 | 0.0 | 0.0 | 0.00 | 0.00 | 0.00 | 94 | 1017.2 |
| 20260906074503 | 67 | 0 | 0.0 | 0.0 | 0.00 | 0.00 | 0.00 | 94 | 1017.2 |
| 20260906073005 | 67 | 0 | 0.0 | 0.0 | 0.00 | 0.00 | 0.00 | 94 | 1017.2 |
| 20260906071504 | 68 | 0 | 0.0 | 0.0 | 0.00 | 0.00 | 0.00 | 94 | 1017.2 |
| 20260906070005 | 68 | 0 | 0.0 | 0.0 | 0.00 | 0.00 | 0.00 | 94 | 1017.2 |
| 20260906064504 | 68 | 0 | 0.0 | 0.0 | 0.00 | 0.00 | 0.00 | 93 | 1017.3 |
| 20260906063005 | 69 | 0 | 0.0 | 0.0 | 0.00 | 0.00 | 0.00 | 94 | 1017.3 |
| 20260906060004 | 69 | 0 | 0.0 | 0.0 | 0.00 | 0.00 | 0.00 | 93 | 1017.3 |
| 20260906054502 | 69 | 0 | 0.0 | 0.0 | 0.00 | 0.00 | 0.00 | 93 | 1017.4 |
| 20260906053003 | 70 | 0 | 0.0 | 0.0 | 0.00 | 0.00 | 0.00 | 93 | 1017.3 |
| 20260906051502 | 70 | 0 | 0.0 | 0.0 | 0.00 | 0.00 | 0.00 | 93 | 1017.1 |
| 20260906050008 | 70 | 0 | 0.0 | 0.0 | 0.00 | 0.00 | 0.00 | 93 | 1017.1 |
| 20260906044502 | 70 | 0 | 0.0 | 0.0 | 0.00 | 0.00 | 0.00 | 93 | 1016.8 |
| 20260906043004 | 70 | 0 | 0.0 | 0.0 | 0.00 | 0.00 | 0.00 | 93 | 1016.7 |
| 20260906041502 | 70 | 0 | 0.0 | 0.0 | 0.00 | 0.00 | 0.00 | 93 | 1016.5 |
| 20260906040004 | 70 | 0 | 0.0 | 0.0 | 0.00 | 0.00 | 0.00 | 93 | 1016.3 |
| 20260906033004 | 70 | 0 | 0.0 | 0.0 | 0.00 | 0.00 | 0.00 | 92 | 1016.2 |
| 20260906031502 | 70 | 0 | 0.0 | 0.0 | 0.00 | 0.01 | 0.00 | 91 | 1016.2 |
| 20260906030004 | 70 | 0 | 0.0 | 0.0 | 0.00 | 0.01 | 0.00 | 91 | 1016.3 |
| 20260906024503 | 70 | 0 | 0.0 | 0.0 | 0.00 | 0.08 | 0.00 | 91 | 1016.2 |
| 20260906023004 | 70 | 0 | 0.0 | 0.0 | 0.00 | 0.08 | 0.00 | 90 | 1016.1 |
| 20260906021503 | 71 | 0 | 0.0 | 0.0 | 0.00 | 0.08 | 0.00 | 90 | 1016.2 |
| 20260906014502 | 71 | 0 | 0.0 | 0.0 | 0.00 | 0.08 | 0.00 | 90 | 1016.3 |
| 20260906013004 | 71 | 0 | 0.0 | 0.0 | 0.00 | 0.08 | 0.00 | 90 | 1016.2 |
| 20260906011503 | 71 | 0 | 0.0 | 0.0 | 0.00 | 0.08 | 0.00 | 90 | 1016.5 |
| 20260906004502 | 71 | 0 | 0.0 | 0.0 | 0.00 | 0.08 | 0.00 | 89 | 1016.0 |
| 20260906003004 | 72 | 0 | 0.0 | 0.0 | 0.00 | 0.08 | 0.00 | 89 | 1016.0 |
| 20260906001502 | 72 | 0 | 0.0 | 0.0 | 0.00 | 0.08 | 0.00 | 89 | 1015.9 |
| 20260906000004 | 72 | 0 | 0.0 | 0.0 | 0.00 | 0.08 | 0.00 | 89 | 1015.8 |
| 20260905234502 | 72 | 0 | 0.0 | 0.0 | 0.00 | 0.08 | 0.00 | 89 | 1015.8 |
| 20260905230004 | 75 | 0 | 0.0 | 0.0 | 0.00 | 0.08 | 0.00 | 84 | 1015.6 |
| 20260905224503 | 76 | 0 | 0.0 | 0.0 | 0.00 | 0.08 | 0.00 | 83 | 1015.3 |
| 20260905223005 | 77 | 0 | 0.0 | 0.0 | 0.00 | 0.08 | 0.00 | 83 | 1015.2 |
| 20260905221503 | 78 | 0 | 0.0 | 0.0 | 0.00 | 0.08 | 0.00 | 80 | 1015.2 |
| 20260905220004 | 79 | 0 | 0.0 | 0.0 | 0.00 | 0.08 | 0.00 | 80 | 1015.1 |
| 20260905214502 | 80 | 0 | 0.0 | 0.0 | 0.00 | 0.08 | 0.00 | 79 | 1015.0 |
| 20260905213004 | 80 | 0 | 0.0 | 0.0 | 0.00 | 0.08 | 0.00 | 82 | 1014.9 |
| 20260905211503 | 81 | 0 | 0.0 | 0.0 | 0.00 | 0.08 | 0.00 | 80 | 1014.6 |
| 20260905210004 | 81 | 0 | 0.0 | 0.0 | 0.00 | 0.08 | 0.00 | 78 | 1014.6 |
| 20260905201502 | 80 | 0 | 0.0 | 0.0 | 0.00 | 0.08 | 0.00 | 83 | 1014.7 |
| 20260905200004 | 79 | 0 | 0.0 | 0.0 | 0.00 | 0.08 | 0.00 | 83 | 1014.8 |
| 20260905194502 | 79 | 0 | 0.0 | 0.0 | 0.00 | 0.08 | 0.00 | 83 | 1015.1 |
| 20260905193005 | 77 | 0 | 0.0 | 0.0 | 0.00 | 0.08 | 0.00 | 87 | 1015.2 |
| 20260905191503 | 77 | 0 | 0.0 | 0.0 | 0.00 | 0.08 | 0.00 | 86 | 1015.3 |
| 20260905190004 | 76 | 0 | 0.0 | 0.0 | 0.00 | 0.08 | 0.00 | 87 | 1015.5 |
| 20260905184502 | 76 | 0 | 0.0 | 0.0 | 0.00 | 0.08 | 0.00 | 87 | 1015.5 |
| 20260905183005 | 76 | 0 | 0.0 | 0.0 | 0.00 | 0.08 | 0.00 | 88 | 1015.5 |
| 20260905181502 | 76 | 0 | 0.0 | 0.0 | 0.00 | 0.08 | 0.00 | 88 | 1015.6 |
| 20260905180005 | 75 | 0 | 0.0 | 0.0 | 0.00 | 0.08 | 0.00 | 88 | 1015.5 |
| 20260905174502 | 75 | 0 | 0.0 | 0.0 | 0.00 | 0.08 | 0.00 | 89 | 1015.2 |
| 20260905170004 | 75 | 0 | 0.0 | 0.0 | 0.00 | 0.08 | 0.00 | 89 | 1015.6 |
| 20260905164503 | 75 | 0 | 0.0 | 0.0 | 0.00 | 0.08 | 0.00 | 89 | 1015.6 |
| 20260905163003 | 75 | 0 | 0.0 | 0.0 | 0.00 | 0.08 | 0.00 | 90 | 1015.6 |
| 20260905161503 | 75 | 0 | 0.0 | 0.0 | 0.00 | 0.08 | 0.00 | 90 | 1015.6 |
| 20260905160004 | 75 | 0 | 0.0 | 0.0 | 0.00 | 0.08 | 0.00 | 90 | 1015.5 |
| 20260905154502 | 75 | 0 | 0.0 | 0.0 | 0.00 | 0.08 | 0.00 | 91 | 1015.2 |
| 20260905153005 | 75 | 0 | 0.0 | 0.0 | 0.00 | 0.08 | 0.00 | 91 | 1015.1 |
| 20260905143003 | 74 | 0 | 0.0 | 0.0 | 0.00 | 0.08 | 0.00 | 96 | 1014.6 |
| 20260905141503 | 73 | 0 | 0.0 | 0.0 | 0.00 | 0.08 | 0.00 | 96 | 1014.6 |
| 20260905140005 | 73 | 0 | 0.0 | 0.0 | 0.00 | 0.08 | 0.00 | 96 | 1014.5 |
| 20260905131502 | 72 | 0 | 0.0 | 0.0 | 0.00 | 0.08 | 0.00 | 97 | 1014.9 |
| 20260905130004 | 72 | 0 | 0.0 | 0.0 | 0.00 | 0.08 | 0.00 | 97 | 1014.2 |
| 20260905124502 | 72 | 0 | 0.0 | 0.0 | 0.00 | 0.08 | 0.00 | 97 | 1014.1 |